Location: Colle Santa Colomba
(42.0333°N, 12.5667°E)
Time: 02:30:01
(UTC+00:00)

Okean 1-7 Rocket - Pass Details

Date: 25 October 2021
Orbit: 617 x 648 km, 82.5° (Epoch: 28 November)

Event Time Altitude Azimuth Distance (km) Brightness Sun altitude
Rises 16:36:41 0° 359° (N) 2,909 6.9 -5.1°
Reaches altitude 10° 16:39:03 10° 7° (N) 2,002 6.0 -5.5°
Maximum altitude 16:43:13 39° 77° (ENE) 937 4.0 -6.3°
Drops below altitude 10° 16:47:24 10° 147° (SSE) 2,005 6.0 -7.1°
Sets 16:49:44 0° 155° (SSE) 2,913 6.9 -7.5°
